Regional Weather Roundup
Issued by NWS Green Bay, WI

Home | Current Version | Previous Version | Text Only | Print | Product List | Glossary On
Versions: 1 2 3 4 5 6 7 8 9 10 11 12 13 14 15 16 17 18 19 20 21 22 23 24 25 26 27 28 29 30 31 32 33 34 35 36 37 38 39 40 41 42 43 44 45 46 47 48 49 50
000
ASUS43 KGRB 290310
RWRGRB

NORTH-CENTRAL AND NORTHEAST WISCONSIN REGIONAL WEATHER ROUNDUP
NATIONAL WEATHER SERVICE GREEN BAY WI
900 PM CST FRI NOV 28 2014

WIZ005-009-010>012-018-019-290400-
NORTH CENTRAL WISCONSIN

CITY           SKY/WX    TMP DP  RH WIND       PRES   REMARKS
IRONWOOD       CLOUDY    18  12  79 S7        29.79F WCI   8
MANITOWISH WTR MOCLDY    14  11  91 S3        29.80F
ARBOR VITAE    CLOUDY    17  13  87 SE7       29.80F WCI   7
EAGLE RIVER    CLOUDY    14  10  84 CALM      29.81F
LAND O LAKES   CLOUDY    15  12  89 S3        29.81F
RHINELANDER    CLOUDY    14  11  87 SE6       29.82F WCI   5
PHILLIPS       MOCLDY    16  13  88 SE7       29.80F WCI   6
ANTIGO         MOCLDY    11  10  92 SE3       29.85F
TOMAHAWK       CLOUDY    15  12  88 CALM      29.82F
MERRILL        MOCLDY    15  13  90 SE5       29.83F WCI   7
$$

WIZ013-073-290400-
NORTHEAST WISCONSIN

CITY           SKY/WX    TMP DP  RH WIND       PRES   REMARKS
IRON MOUNTAIN  CLOUDY    15  11  83 CALM      29.88F
MARINETTE      MOCLDY    21  18  86 CALM      29.93R
OCONTO         CLOUDY    21  20  96 CALM      29.92F
$$

WIZ017-030-035>037-045-290400-
CENTRAL WISCONSIN

CITY           SKY/WX    TMP DP  RH WIND       PRES   REMARKS
MEDFORD        MOCLDY    17  15  90 SE3       29.83S
WAUSAU         MOCLDY    17  14  88 E8        29.84F WCI   7
MOSINEE        CLOUDY    18  18 100 E5        29.87S
MARSHFIELD     CLOUDY    21  17  84 E5        29.85R
WISC RAPIDS    MIX PCPN  23  18  81 CALM      29.89R
STEVENS POINT  CLOUDY    19  17  89 NE3       29.89R
WAUPACA        CLOUDY    25  21  83 CALM      29.89F
SHAWANO        CLOUDY    22  19  89 N3        29.91F
CLINTONVILLE   CLOUDY    21  21 100 CALM      29.90F
$$

WIZ038-039-048-051-290400-
FOX VALLEY

CITY           SKY/WX    TMP DP  RH WIND       PRES   REMARKS
NWS GREEN BAY  CLOUDY    25  23  92 NE5       29.90F FOG
APPLETON       CLOUDY    27  19  74 SE6       29.89F
OSHKOSH        CLOUDY    27  21  78 MISG      29.88F
FOND DU LAC    FRZ RAIN  29  25  85 S10       29.88F
$$

WIZ022-050-052-290400-
EAST CENTRAL WISCONSIN

CITY           SKY/WX    TMP DP  RH WIND       PRES   REMARKS
STURGEON BAY   CLOUDY    25  21  86 CALM      29.93S
MANITOWOC      CLOUDY    30  26  85 S8        29.91F
SHEBOYGAN      CLOUDY    30  25  81 S12       29.91F
$$

LMZ563-521-522-541>543-290400-
LAKESHORE

STATION/POSITION TIME  TEMP    WIND        PRES    VSBY  WAVE
                       AIR SEA DIR/SP/G                  HT/PER
                 (UTC) (F)     (DEG/KT/KT) (MB)    (MI)  (FT/S)
SHEBOYGAN LKSHOR 0300   33 36  200/ 15/ 17 1014.0F
KEWAUNEE LKSHORE 0300   29     230/  1/  5 1012.4F
NORTHPORT PIER   0300   31     150/ 12/ 20 1013.5S
N MID LAKE BUOY  0300   31 42  170/ 21/ 25 1014.6F         5/ 6
STURGEON BAY CG  0200   27     240/  4     1015.1    5/8   2
CHAMBERS ISLAND  0300   25     240/  3/  7 1013.9R
MENOMINEE LKSHOR 0300   22     280/  2/  3 1014.4R
$$


USA.gov is the U.S. government's official web portal to all federal, state and local government web resources and services.